Find Starlink 31314

NORAD ID: 58967 Int'l Des: 2024-031 Owner: SPXS Country: US Constellation: starlink operational
LEOCIRCULAR

实时位置

正在加载3D地球...

关于 Starlink 31314

正在加载描述...

即将过境

Passes for default location (London). Set your location on the main map for personalized predictions.

高度历史

Loading altitude history...

两行轨道根数

1 58967U 24031C 26125.75435227 -.00001247 00000-0 -29979-4 0 9992
2 58967 53.1610 31.3797 0001166 77.3115 282.8016 15.30216800125271
Epoch: May 5, 2026 • Age: 8 hours

当前状态

高度 478.3 km
速度 7.63 km/s
星下点 41.43°N, 174.22°E
发射日期 Feb 15, 2024
运行时间 2.2 years
类型 internet

技术详情

分类 Payload
质量 730.00 kg
干质量 700.00 kg
总质量 730.00 kg
长度 0.30 m
直径 4.10 m
跨度 29.00 m
形状 Box + pan
制造商 SPXS
平台类型 Starlink V2M
阶段状态 In Orbit
所有者/国家 SPXS/US

Most Searched